Change the Weather History Date:

Saturday, November 17, 2012

  Actual Average Record
Temperature  
Mean Temperature 49 °F 43 °F  
Max Temperature 63 °F 54 °F 80 °F (1999)
Min Temperature 34 °F 32 °F 3 °F (1959)
Degree Days  
Heating Degree Days 16 22  
Month to date heating degree days 262 302  
Since 1 July heating degree days 594 620  
Cooling Degree Days 0 0  
Month to date cooling degree days 0 0  
Year to date cooling degree days 2051 1646  
Moisture  
Dew Point 31 °F    
Average Humidity 55    
Maximum Humidity 76    
Minimum Humidity 34    
Precipitation  
Precipitation 0.00 in 0.04 in 0.90 in (1957)
Month to date precipitation 0.32 0.78  
Year to date precipitation 17.90 30.09  
Sea Level Pressure  
Sea Level Pressure 30.23 in    
Wind  
Wind Speed 15 mph (SSE)    
Max Wind Speed 28 mph    
Max Gust Speed 36 mph    
Visibility 10 miles    
Events      
T = Trace of Precipitation, MM = Missing Value Source: NWS Daily Summary

Daily Weather History Graph

Daily Weather History Graph

Search for Another Location

Airport or City:

Trip Planner

Search our weather history database for the weather conditions in past years. The results will help you decide how hot, cold, wet, or windy it might be!

Date:

Astronomy

Nov. 17, 2012 Rise Set
Actual Time 7:15 AM CST 5:15 PM CST
Civil Twilight 6:47 AM CST 5:43 PM CST
Nautical Twilight 6:14 AM CST 6:16 PM CST
Astronomical Twilight 5:43 AM CST 6:47 PM CST
Moon 11:01 AM CST (11/17) 9:26 PM CST (11/17)
Length of Visible Light 10h 56m
Length of Day
9h 59m
Waxing Crescent, 20% of the Moon is Illuminated
Nov 17
Waxing Crescent
Nov 20
First Quarter
Nov 28
Full
Dec 6
Last Quarter
Dec 13
New

Hourly Weather History & Observations

Time (CST) Temp. Windchill Dew Point Humidity Pressure Visibility Wind Dir Wind Speed Gust Speed Precip Events Conditions
12:53 AM 37.9 °F 34.4 °F 30.0 °F 73% 30.31 in 10.0 mi South 4.6 mph - N/A   Clear
1:53 AM 41.0 °F 35.2 °F 30.9 °F 67% 30.30 in 10.0 mi SSE 9.2 mph - N/A   Clear
2:53 AM 42.1 °F 36.1 °F 30.9 °F 65% 30.29 in 10.0 mi South 10.4 mph - N/A   Clear
3:53 AM 42.1 °F 35.2 °F 30.9 °F 65% 30.27 in 10.0 mi SSE 12.7 mph - N/A   Clear
4:53 AM 43.0 °F 36.0 °F 30.9 °F 62% 30.27 in 10.0 mi South 13.8 mph - N/A   Clear
5:53 AM 42.1 °F 35.2 °F 30.9 °F 65% 30.27 in 10.0 mi South 12.7 mph - N/A   Clear
6:53 AM 39.9 °F 34.5 °F 30.9 °F 70% 30.28 in 10.0 mi South 8.1 mph - N/A   Clear
7:53 AM 42.1 °F 35.2 °F 30.9 °F 65% 30.27 in 10.0 mi SSE 12.7 mph - N/A   Clear
8:53 AM 46.9 °F - 32.0 °F 56% 30.28 in 10.0 mi South 10.4 mph - N/A   Clear
9:53 AM 54.0 °F - 30.9 °F 41% 30.28 in 10.0 mi South 21.9 mph 31.1 mph N/A   Clear
10:53 AM 57.0 °F - 32.0 °F 39% 30.27 in 10.0 mi South 20.7 mph 28.8 mph N/A   Clear
11:53 AM 61.0 °F - 32.0 °F 34% 30.23 in 10.0 mi South 24.2 mph 32.2 mph N/A   Clear
12:53 PM 61.0 °F - 33.1 °F 35% 30.20 in 10.0 mi South 20.7 mph 32.2 mph N/A   Clear
1:53 PM 61.0 °F - 34.0 °F 36% 30.17 in 10.0 mi South 26.5 mph 33.4 mph N/A   Clear
2:53 PM 63.0 °F - 34.0 °F 34% 30.15 in 10.0 mi SSE 20.7 mph 29.9 mph N/A   Clear
3:53 PM 62.1 °F - 33.1 °F 34% 30.17 in 10.0 mi SSE 21.9 mph 27.6 mph N/A   Clear
4:53 PM 59.0 °F - 32.0 °F 36% 30.17 in 10.0 mi SSE 21.9 mph 28.8 mph N/A   Clear
5:53 PM 54.0 °F - 32.0 °F 43% 30.19 in 10.0 mi SSE 12.7 mph - N/A   Clear
6:53 PM 51.1 °F - 33.1 °F 50% 30.20 in 10.0 mi SE 13.8 mph - N/A   Clear
7:53 PM 50.0 °F - 30.9 °F 48% 30.20 in 10.0 mi SSE 12.7 mph - N/A   Clear
8:53 PM 50.0 °F - 28.9 °F 44% 30.19 in 10.0 mi SSE 12.7 mph - N/A   Clear
9:53 PM 48.0 °F - 28.0 °F 46% 30.19 in 10.0 mi South 16.1 mph - N/A   Clear
10:53 PM 48.0 °F - 28.0 °F 46% 30.18 in 10.0 mi South 13.8 mph - N/A   Clear
11:53 PM 48.0 °F - 28.0 °F 46% 30.18 in 10.0 mi South 16.1 mph - N/A   Clear